Find Palapa B2P

NORAD ID: 17706 Int'l Des: 1987-029 Owner: PER Country: ID operational
HEOCIRCULAR

リアルタイム位置

3D地球を読み込み中...

Palapa B2Pについて

説明を読み込み中...

次回通過

Passes for default location (London). Set your location on the main map for personalized predictions.

高度履歴

Loading altitude history...

軌道要素

1 17706U 87029A 26135.25161933 .00000094 00000-0 00000-0 0 9997
2 17706 14.3845 348.4341 0003167 40.4027 324.4746 0.99912030 42200
Epoch: May 15, 2026 • Age: 18 hours

現在のステータス

高度 35899.4 km
速度 3.07 km/s
衛星直下点 -14.39°S, 28.71°E
打ち上げ日 Mar 20, 1987
運用期間 39.1 years
タイプ other

技術仕様

分類 Payload
質量 660.00 kg
乾燥質量 500.00 kg
総質量 1203.00 kg
長さ 6.90 m
直径 2.20 m
スパン 6.90 m
形状 Cyl
製造者 HSES
バスタイプ HS-376
フェーズステータス Unknown Active Status
所有者/国 PER/ID

Most Searched